Tracking 18815 objects as of 19-October-2017
HD Live streaming from Space Station
objects crossing your sky now

CRRES DEB (CANISTER)

Track CRRES DEB (CANISTER) now!


NORAD ID: 27051
Int'l Code: 1990-065U
Perigee: 325.9 km
Apogee: 30,165.5 km
Inclination: 17.9 °
Period: 527.2 minutes
Semi major axis: 21616 km
RCS: 0.1304 m2 (medium)
Launch date: July 25, 1990
Source: United States (US)
Launch site: AIR FORCE EASTERN TEST RANGE (AFETR)

Note: This is SATELLITE DEBRIS
aabbcc
Your satellite tracking list
Your tracking list is empty





NASA's NSSDC Master Catalog

Two Line Element Set (TLE):
1 27051U 90065U   17291.99029180  .00000420  00000-0  18243-3 0  9990
2 27051  17.9113 164.6979 6901968 334.7250   3.6015  2.73161218172741
Source of the keplerian elements: AFSPC